Regional Weather Roundup
Issued by NWS

Home | Current Version | Previous Version | Graphics & Text | Print | Product List | Glossary On
Versions: 1 2 3 4 5 6 7 8 9 10 11 12 13 14 15 16 17 18 19 20 21 22 23 24 25 26 27 28 29 30 31 32 33 34 35 36 37 38 39 40 41 42 43 44 45 46 47 48 49 50
000
ASUS45 KTFX 230010
RWRMT
MONTANA REGIONAL WEATHER ROUNDUP
NATIONAL WEATHER SERVICE GREAT FALLS MT
500 PM MST WED NOV 22 2017

NOTE: "FAIR" INDICATES FEW OR NO CLOUDS BELOW 12000 FEET WITH NO
SIGNIFICANT WEATHER AND/OR OBSTRUCTIONS TO VISIBILITY.

MTZ001>007-043-230100-
WEST OF THE DIVIDE

CITY           SKY/WX    TMP DP  RH WIND       PRES   REMARKS
KALISPELL      CLOUDY    50  49  96 SW7       30.10F
MISSOULA       CLOUDY    44  43  96 CALM      30.19S
BUTTE          FAIR      50  37  61 CALM      30.25F
MULLAN PASS    LGT RAIN  43  41  93 VRB6      30.19S VSB 1/2
ANACONDA         N/A     52  39  62 S9        30.22S
DEER LODGE       N/A     48  39  71 CALM      30.22S
EUREKA           N/A     55  48  76 MISG      30.06F
HAMILTON         N/A     57  45  62 S10       30.19F
LIBBY            N/A    N/A N/A N/A CALM      30.09F
PLAINS           N/A     48  45  90 E1        30.14
RONAN            N/A     54  48  80 SE3       30.17F
$$

MTZ008-052>055-230100-
SOUTHWEST MONTANA

CITY           SKY/WX    TMP DP  RH WIND       PRES   REMARKS
BOZEMAN        FAIR      41  35  79 E9        30.20F
DILLON         FAIR      53  38  56 SW14      30.26S
W YELLOWSTONE  CLOUDY    39  39 100 S8        30.38S FOG
ENNIS          CLOUDY    54  37  54 S12       30.32F
TWIN BRIDGES     N/A     54  38  54 CALM      30.21
$$

MTZ009-010-012-014-046-048-049-054-230100-
EAST SLOPES AND CENTRAL MONTANA

CITY           SKY/WX    TMP DP  RH WIND       PRES   REMARKS
CUT BANK       FAIR      53  42  66 W23       29.97F
GREAT FALLS    FAIR      59  41  51 SW37G48   30.00F
MALMSTROM AFB  FAIR      58  42  56 SW25      30.04S
HELENA         FAIR      59  41  51 SW3G16    30.14S
BOWMANS CRNR   MOCLDY    51  41  69 S12       30.06F
CHOTEAU          N/A     57  39  51 SW8       30.03F
FAIRFIELD      MOCLDY    59  40  49 S15G21    30.02F
POWER          FAIR      56  41  56 SW17G25   30.00F
RAYNESFORD     FAIR      58  40  50 SW18G25   30.06F
ULM            FAIR      58  42  54 SW16      30.09R
$$

MTZ011-013-016-021-045-047-050-051-230100-
NORTH CENTRAL MONTANA

CITY           SKY/WX    TMP DP  RH WIND       PRES   REMARKS
HAVRE          FAIR      46  39  76 W9        29.95F
LEWISTOWN      FAIR      56  40  55 W21       30.06R
N BAR RANCH    FAIR      54  36  50 W9        30.09R
CHINOOK          N/A     48  39  71 W5        29.93F
DENTON         FAIR      57  41  54 W21       29.98S
GEYSER         FAIR      56  40  55 W28G37    30.01F
GRASS RANGE    FAIR      54  39  57 E14       30.01R
STANFORD       FAIR      57  39  50 W32G39    30.03S
WINIFRED       FAIR      56  41  57 W18G26    30.00R
$$

MTZ017>020-022>027-061-062-230100-
NORTHEAST MONTANA

CITY           SKY/WX    TMP DP  RH WIND       PRES   REMARKS
GLASGOW        FAIR      44  36  73 SW6       29.94S
GLENDIVE       FAIR      44  36  73 W6        29.97S
JORDAN           N/A     52  40  63 NW5       29.97R
SIDNEY         FAIR      35  30  82 SW6       29.96R WCI  30
WOLF POINT     FAIR      36  29  75 SW3       29.95S
MALTA          CLEAR     45  39  81 S7        29.94R
PLENTYWOOD       N/A     32  27  80 CALM      29.95S
POPLAR           N/A     45  34  65 NE3       29.95F
SCOBEY           N/A     31  19  61 CALM      29.93R
$$

MTZ028>42-056>058-230100-
SOUTHCENTRAL AND SOUTHEAST MONTANA

CITY           SKY/WX    TMP DP  RH WIND       PRES   REMARKS
BAKER          FAIR      54  40  59 NW10      29.99R
BILLINGS       FAIR      56  39  53 W17G24    30.10R
LIVINGSTON     FAIR      57  41  55 SW14      30.17R
MILES CITY     CLOUDY    59  43  55 NW6       29.99R
BIG TIMBER     PTCLDY    59  39  47 W28       30.15F
FORSYTH          N/A     63  41  45 W12G18    30.00F
HARLOWTON      MOCLDY    52  40  64 NW14      30.12S
LAUREL           N/A     54  39  58 SW10      30.12R
ROUNDUP          N/A     60  37  42 MISG      29.97S
$$

REGIONAL REPORTS...DAKOTAS

CITY           SKY/WX    TMP DP  RH WIND       PRES   REMARKS
WILLISTON      FAIR      34  26  72 NE6       29.97R WCI  29
MINOT          FAIR      27  20  75 NW8       29.94R WCI  19
DICKINSON      FAIR      45  35  68 NW12      29.92R
BEACH          FAIR      48  37  66 W8G17     29.99S
CROSBY         FAIR      25  25 100 NW9       29.97S WCI  15
TIOGA          FAIR      30  28  93 NW8       29.96R WCI  23
WATFORD CITY   FAIR      36  30  80 N8        29.95R WCI  29
BISMARCK       FAIR      50  36  58 N10       29.91R
GRAND FORKS    CLOUDY    28  20  71 SE5       29.93S
FARGO          FAIR      29  15  56 SE10      29.91S WCI  20
BUFFALO SD       N/A     57  39  51 W14       29.93R
RAPID CITY     FAIR      57  37  47 NW7       30.04R
$$

REGIONAL REPORTS...WYOMING/IDAHO/WASHINGTON

CITY           SKY/WX    TMP DP  RH WIND       PRES   REMARKS
GILLETTE       FAIR      45  36  70 CALM      30.12R
SHERIDAN       FAIR      55  38  52 W6        30.10R
BUFFALO WY     FAIR      55  32  41 NW7       30.15S
CODY           FAIR      56  39  53 W18G31    30.23R
YELLOWSTONE LA   N/A     38  37  97 VRB3      30.42R
IDAHO FALLS    FAIR      48  44  86 N7        30.37S
SALMON         FAIR      41  40  96 CALM      30.32S
BOISE          FAIR      59  50  72 SE5       30.23F
SPOKANE        MOCLDY    54  54 100 SE7       30.07F
$$

REGIONAL REPORTS...ALBERTA

CITY           SKY/WX    TMP DP  RH WIND       PRES   REMARKS
EDMONTON       CLEAR     21  14  73 E3        29.72F
CALGARY        MOCLDY    50  36  57 S7        29.77F
LETHBRIDGE     PTCLDY    48  41  76 SW9       29.89F
MEDICINE HAT   PTCLDY    36  28  75 VRB2      29.85F
$$

REGIONAL REPORTS...SASKATCHEWAN

CITY           SKY/WX    TMP DP  RH WIND       PRES   REMARKS
SWIFT CURRENT  CLEAR     23  19  86 S5        29.88S
REGINA         CLOUDY    21  18  86 W5        29.96S
SASKATOON      CLOUDY    18  12  79 S8        29.92F WCI   7
$$



USA.gov is the U.S. government's official web portal to all federal, state and local government web resources and services.